Location: Amsterdam
(30.7274°N, 84.4357°W)
Time: 21:23:11
(UTC+00:00)

Injun/Solrad 3 - Pass Details

Date: 25 February 2026
Orbit: 872 x 984 km, 66.8° (Epoch: 8 March)

Event Time Altitude Azimuth Distance (km) Brightness Sun altitude
Rises 13:51:32 0° 181° (S) 3,443 11.2 20.3°
Reaches altitude 10° 13:54:11 10° 173° (S) 2,508 10.7 20.9°
Maximum altitude 13:59:25 36° 108° (ESE) 1,349 10.8 21.9°
Drops below altitude 10° 14:04:42 10° 44° (NE) 2,543 10.5 22.9°
Sets 14:07:23 0° 36° (NE) 3,498 11.0 23.4°
